COSMOS 970 DEB, 64998

Orbit data source: Space-Track

COSMOS 970 DEB, 64998 is space debris in LEO originally from a launch on Wed, 21 Dec 1977 UTC launched from the Tyuratam Missile And Space Complex (TTMTR). Debris objects in space refer to the collection of defunct objects orbiting the Earth. Examples of debris include non-operational satellites, rocket bodies, and fragments generated from explosions, collisions, or faulty payload assembly.

Loading next visibility...
Identifier
64998, 1977-121DK
Orbit
LEO
Country
Flag of CISCIS
Related business
Manufacturer
Unknown
Mission
Spacecraft
Bus & Motor
Unknown
Mass
Unknown
Launch date (UTC)
1977-12-21 (48 years ago)
Launch vehicle
Unknown
Launch site
Tyuratam Missile And Space Complex (TTMTR)
Object type
Payload
Rocket body
Debris
Shape & HBR
Unknown shape, 0.1 m
Radar Cross Section
Small (<0.1 m²)

Expand to show TLE details & history
Last TLE update: 2 weeks ago

TLE from 2 weeks ago
0 COSMOS 970 DEB
1 64998U 77121DK  26155.03229513  .00000313  00000-0  41589-3 0  9995
2 64998  65.9851  32.9667 0104209  29.9772 330.7201 13.71906489626869
Epoch: 2026-06-04T00:46Z
TLE epoch observation values (Epoch: 2026-06-04T00:46:30.299Z)
Latitude
-0.00002°
Longitude
128.85806°
Altitude
927.918 km
Speed
7.422 km/s
True Right ascension
02h 11m 52s
True Declination
0° 00' 00"
Sunlit
Object was in daylight at epoch
Visualization orbit readout
Latitude
Unknown
Longitude
Unknown
Altitude
Unknown
Speed
Unknown
Apparent Right ascension
Unknown
Apparent Declination
Unknown
Sunlit
N/A
Visualization observer readout
Local Sidereal Time
07:15:29
Azimuth
Unknown
Elevation
Unknown
Doppler factor
Unknown
Orbital elements
Apogee altitude
1,068.031 km
Perigee altitude
914.44 km
Semi-major axis
7,369.373 km
Eccentricity
0.01042
Inclination
65.9851°
RAAN
32.9667°
Arg. of periapsis
29.9772°
True anomaly
330.12937°
Mean anomaly
330.7201°
Eccentric anomaly
330.42541°
Mean motion
3.43082 °/min
Orbital period
104.93 mins
BSTAR
0.00041589
Loading maneuver chart data...
Computing Atmospheric mass density...
Loading historical data...
Loading historical data...
Loading historical data...
Loading historical data...
Loading historical data...
Loading historical data...
Loading historical data...

Documentation

Showing up to 5 results
|